Location: Marquette
(46.5440°N, 87.3950°W)
Time: 07:03:31
(UTC-04:00)

Daily predictions for brighter satellites

Satellite Brightness Start Highest point End
(mag) Time Altitude Azimuth Time Altitude Azimuth Time Altitude Azimuth
Cosmos 1809 Rocket 4.5 19:19:58 10° S 19:26:03 86° E 19:32:10 10° N
Cosmos 1680 Rocket 4.3 19:21:17 10° SW 19:26:27 57° WNW 19:31:39 10° NNE
SKYMED 2 4.1 19:26:02 10° NNE 19:30:05 36° E 19:34:06 10° SSE
EO 1 Del DPAF 3.6 19:27:11 10° NNE 19:30:53 43° E 19:34:33 10° S
Cosmos 1470 4.4 19:27:46 10° SSW 19:31:33 40° WNW 19:35:19 10° N
CZ-4C R/B 3.9 19:30:42 10° ESE 19:32:20 11° ESE 19:34:00 10° E
Meteor 1-11 4.3 19:27:45 10° N 19:33:35 78° ENE 19:39:19 10° SSE
Cosmos 1743 Rocket 3.6 19:29:58 10° N 19:34:19 60° ENE 19:38:39 10° SSE
Cosmos 2322 3.9 19:30:03 10° NNW 19:35:39 51° ENE 19:41:12 10° SE
Cosmos 1766 Rocket 4.4 19:33:08 10° NNW 19:37:31 57° W 19:41:53 10° S
FENGYUN 3A 4.1 19:33:26 10° SE 19:38:27 42° ENE 19:43:31 10° N
RESURS DK-1 2.5 19:35:26 10° NNW 19:39:32 55° ENE 19:43:35 10° SE
Meteor 1-16 Rocket 4.1 19:36:56 10° S 19:42:14 89° W 19:47:39 10° N
Lacrosse 5 rocket 2.9 19:39:26 10° W 19:43:31 33° NNW 19:47:24 10° NE
Cosmos 2058 3.0 19:40:29 10° N 19:44:38 58° ENE 19:48:44 10° SSE
Cosmos 1842 Rocket 3.7 19:40:42 10° S 19:45:03 53° E 19:49:24 10° NNE
SJ-6B 4.2 19:45:28 11° ESE 19:47:44 17° ENE 19:50:13 10° NNE
Cosmos 2221 3.5 19:44:09 10° SE 19:47:45 26° E 19:51:21 10° NNE
Landsat 4 4.1 19:44:21 10° N 19:48:04 65° WNW 19:51:45 10° SSW
CZ-2C R/B 4.0 19:43:39 10° N 19:48:12 74° WNW 19:52:39 10° SSW
ALOS 2.5 19:44:34 10° SE 19:49:02 48° ENE 19:53:33 10° N
Aureole 1 Rocket 3.7 19:42:46 10° SSW 19:49:12 84° WNW 19:54:02 10° NNE
Cosmos 1461 3.7 19:46:31 10° SW 19:50:29 52° NW 19:54:40 10° NNE
Atlas Centaur 2 4.2 19:51:03 10° SSW 19:53:02 12° S 19:55:12 10° SSE
Cosmos 921 Rocket 3.2 19:49:10 10° N 19:53:35 54° ENE 19:57:53 10° SE
MONITOR-E 4.1 19:51:18 10° SSE 19:54:22 88° E 19:57:29 10° NNW
Cosmos 2219 Rocket 3.1 19:49:34 10° N 19:54:25 29° NE 19:58:26 14° ESE
ERS-2 3.7 19:51:50 10° S 19:55:20 40° W 19:58:52 10° NNW
Cosmos 1500 Rocket 3.4 19:51:36 10° N 19:56:00 77° E 20:00:18 10° SSE
Cosmos 1703 3.2 19:52:28 10° N 19:56:26 81° E 20:00:20 10° S
Gbstr 26 Del rocket 3.7 19:52:43 10° WNW 19:57:30 62° NNE 20:02:16 16° E
Resurs 01 Rocket 3.3 19:59:59 15° ENE 20:00:28 15° ENE 20:02:56 10° NNE
Meteor 1-28 Rocket 4.1 19:57:14 10° N 20:00:58 53° WNW 20:04:38 10° SSW
Abrixas rocket 2.2 20:01:50 10° W 20:05:07 73° N 20:07:04 22° ENE
Cosmos 2366 rocket 4.1 19:59:54 10° SSW 20:06:08 80° W 20:12:21 10° N
SPOT 3 Rocket 3.7 20:01:19 10° SSE 20:06:31 83° WSW 20:11:47 10° NNW
SL-16 R/B 4.1 20:02:39 10° NW 20:07:43 34° WSW 20:12:44 10° SSW
Cosmos 1726 3.1 20:08:08 10° SE 20:11:10 24° E 20:14:13 10° NE
Cosmos 2333 4.4 20:05:42 10° NNW 20:11:18 53° ENE 20:16:55 10° SE
USA 267 4.3 20:09:11 17° E 20:12:15 24° SE 20:17:19 10° S
Cosmos 1400 Rocket 3.8 20:08:56 10° NNW 20:12:53 51° W 20:16:45 10° S
Cosmos 2237 4.2 20:07:28 10° NNW 20:13:15 80° ENE 20:18:58 10° SSE
Cosmos 1908 3.2 20:11:10 10° S 20:15:01 58° E 20:18:53 10° NNE
COSMO-SKYMED 1 2.8 20:13:54 10° N 20:18:15 72° WNW 20:22:33 10° SSW
CZ-4 R/B 4.1 20:15:42 10° SSW 20:19:09 24° W 20:22:35 10° NW
GENESIS II 4.2 20:17:05 10° SSW 20:21:01 64° ESE 20:23:36 20° NE
Cosmos 2098 Rocket 3.7 20:17:09 10° SSE 20:21:23 44° E 20:26:45 10° NNE
Cosmos 1452 Rocket 3.8 20:16:49 10° NNW 20:22:04 72° WSW 20:27:17 10° SSE
H-2A R/B 2.9 20:19:40 10° SSE 20:23:26 51° ENE 20:27:15 10° N
Cosmos 44 3.8 20:19:51 10° S 20:23:41 30° ESE 20:24:23 29° E
Cosmos 2237 Rocket 3.2 20:20:40 10° N 20:25:35 29° NE 20:27:16 25° ENE
Sich 1 3.5 20:23:19 10° N 20:27:24 37° ENE 20:28:51 29° ESE
Cosmos 1805 Rocket 3.5 20:30:03 10° N 20:34:25 65° E 20:38:48 10° SSE
SL-16 R/B 3.8 20:31:05 10° N 20:34:51 18° NE 20:35:24 17° NE
SAR-Lupe-3 4.4 20:31:19 10° NNE 20:34:56 77° ESE 20:38:31 10° S
Aureole 2 Rocket 3.0 20:31:58 10° N 20:35:40 45° ENE 20:36:10 43° E
Spot 2 Rocket 4.2 20:37:26 31° ENE 20:37:51 31° ENE 20:42:15 10° N
FREGAT/IRIS 2.5 20:37:46 33° S 20:38:58 87° WSW 20:41:58 10° NNW
Cosmos 1000 Rocket 4.4 20:34:23 10° N 20:40:41 87° E 20:46:52 10° S
CZ-2D R/B 3.9 20:42:22 37° NE 20:42:22 37° NE 20:45:25 10° N
Cosmos 1110 Rocket 4.4 20:37:23 10° N 20:42:29 43° ENE 20:43:45 37° E
Cosmos 44 Rocket 3.4 20:38:29 10° SSW 20:42:58 47° ESE 20:43:51 41° E
Cosmos 1821 Rocket 3.9 20:36:59 10° S 20:43:04 69° E 20:49:19 10° NNE
Cosmos 1666 Rocket 3.6 20:38:53 10° N 20:43:09 52° ENE 20:44:09 42° ESE
Cosmos 1934 Rocket 4.0 20:42:30 10° S 20:48:44 59° E 20:54:59 10° NNE
Cosmos 1980 4.1 20:43:46 10° NNW 20:49:08 42° NE 20:50:12 38° E
Cosmos 2360 Rocket 3.6 20:44:01 10° NW 20:49:12 38° WSW 20:54:23 10° S
COSMOS 2428 2.7 20:43:49 10° NNW 20:49:32 81° WSW 20:54:29 14° SSE
USA 234 3.8 20:46:38 28° ENE 20:49:39 45° NNE 20:55:50 10° NW
Cosmos 2239 Rocket 4.3 20:44:46 10° S 20:50:53 79° E 20:57:03 10° N
Cosmos 1633 Rocket 3.1 20:47:09 10° N 20:51:30 53° ENE 20:51:39 52° E
Cosmos 2333 Rocket 2.2 20:47:14 10° NNW 20:52:56 61° ENE 20:54:58 39° ESE
SL-8 R/B 3.6 20:50:12 10° WSW 20:55:01 78° SSE 20:56:05 54° E
Iridium 4 Rocket 3.9 20:50:38 10° S 20:56:10 73° W 21:02:03 10° N
CZ-3A R/B 4.4 20:26:37 10° WNW 20:57:26 66° NNE 21:01:29 33° E
Cosmos 2219 3.1 20:55:25 10° SSW 21:01:07 68° ESE 21:05:22 18° NNE
Cosmos 1048 Rocket 3.9 20:58:55 10° SSW 21:04:03 87° WNW 21:09:13 10° NNE
ATLAS 5 CENTAUR R/B 4.3 21:03:18 10° NNW 21:06:07 14° N 21:08:01 12° NNE
Thor Agena Rocket 3.8 21:02:27 10° N 21:07:33 68° WNW 21:12:33 10° SSW
BREEZE M DEB (TANK) 2.8 21:04:42 10° WNW 21:07:41 45° WNW 21:07:41 45° WNW
Cosmos 2123 Rocket 3.9 21:02:48 10° N 21:09:04 83° E 21:14:34 14° S
Envisat 2.9 21:12:32 61° ENE 21:12:32 61° ENE 21:17:26 10° N
Cosmos 1605 Rocket 3.8 21:11:14 10° S 21:17:16 66° E 21:23:19 10° NNE
CZ-4C R/B 2.0 21:14:16 10° SSW 21:19:29 75° SE 21:20:08 67° ENE
MOS 1-B Rocket 3.8 21:19:10 35° SSE 21:21:43 87° WSW 21:27:52 10° NNW
SJ-6B 3.9 21:21:08 32° SW 21:22:08 40° W 21:25:41 10° NNW
Lacrosse 5 rocket 3.4 21:20:34 10° NW 21:23:46 20° N 21:23:54 20° N
BREEZE M DEB (TANK) 4.0 21:08:01 10° WNW 21:24:39 85° SSW 21:25:46 61° SE
Cosmos 2221 4.4 21:21:22 10° SW 21:25:12 31° WNW 21:29:06 10° N
Resurs 01 Rocket 2.4 21:37:34 47° NW 21:37:34 47° NW 21:40:49 10° NNW
Cosmos 2219 Rocket 2.8 21:33:14 10° NW 21:38:40 53° WSW 21:40:12 41° SSW
Cosmos 1331 Rocket 4.1 21:34:43 10° NNW 21:39:39 73° WNW 21:39:39 73° WNW
Gbstr 26 Del rocket 4.2 21:39:26 10° WNW 21:44:38 53° SW 21:44:51 53° SSW
Cosmos 1726 4.4 21:43:21 10° SW 21:46:24 24° WNW 21:49:28 10° NNW
Cosmos 1447 Rocket 4.4 21:42:19 10° N 21:48:42 89° W 21:48:43 89° WSW
USA 267 3.2 21:56:34 72° SSW 21:56:34 72° SSW 22:02:28 10° SW
Cosmos 2237 Rocket 2.9 22:04:24 10° NW 22:09:07 50° WNW 22:09:07 50° WNW
SL-16 R/B 3.5 22:14:13 10° NNW 22:17:17 33° NNW 22:17:17 33° NNW
USA 234 3.8 22:34:00 55° WNW 22:34:00 55° WNW 22:38:58 10° NW
Cosmos 2333 Rocket 4.1 22:32:20 10° NW 22:36:44 23° WSW 22:37:01 23° WSW
ATLAS 5 CENTAUR R/B 4.5 22:47:55 10° NNW 22:49:33 17° NNW 22:49:33 17° NNW
